Location: Glencliff
(36.1226°N, 86.7183°W)
Time: 15:46:19
(UTC+00:00)

Cosmos 2297 Rocket - Pass Details

Date: 25 August 2019
Orbit: 840 x 843 km, 71.0° (Epoch: 19 September)

Event Time Altitude Azimuth Distance (km) Brightness Sun altitude
Exits shadow 08:24:35 15° 321° (NW) 2,104 4.3 -30.5°
Drops below altitude 10° 08:26:52 10° 344° (NNW) 2,468 4.9 -30.1°
Sets 08:30:19 0° 5° (N) 3,407 6.0 -29.6°
